Data supplied by UK-AIR on 20/3/2021
All Data GMT hour ending 
Status: R =Ratified P=Provisional,P*=As supplied
,,Dumbarton Roadside,,,,,,,,,,,,,,,,,,,,,,,
Date,time,"Nitric oxide",status,unit,"Nitrogen dioxide",status,unit,"Nitrogen oxides as nitrogen dioxide",status,unit
 
01-01-2020,01:00,85.02390,R,ugm-3,55.17752,R,ugm-3,185.54568,R,ugm-3
01-01-2020,02:00,87.65380,R,ugm-3,56.65984,R,ugm-3,191.06046,R,ugm-3
01-01-2020,03:00,56.32617,R,ugm-3,53.32736,R,ugm-3,139.69295,R,ugm-3
01-01-2020,04:00,13.61192,R,ugm-3,45.26158,R,ugm-3,66.13289,R,ugm-3
01-01-2020,05:00,11.61781,R,ugm-3,37.60092,R,ugm-3,55.41465,R,ugm-3
01-01-2020,06:00,0.66470,R,ugm-3,15.74752,R,ugm-3,16.76671,R,ugm-3
01-01-2020,07:00,0.46240,R,ugm-3,11.56583,R,ugm-3,12.27483,R,ugm-3
01-01-2020,08:00,0.57800,R,ugm-3,5.56248,R,ugm-3,6.44874,R,ugm-3
01-01-2020,09:00,0.72250,R,ugm-3,4.40696,R,ugm-3,5.51478,R,ugm-3
01-01-2020,10:00,0.72250,R,ugm-3,4.89618,R,ugm-3,6.00400,R,ugm-3
01-01-2020,11:00,0.78030,R,ugm-3,4.05149,R,ugm-3,5.24794,R,ugm-3
01-01-2020,12:00,0.66470,R,ugm-3,4.67348,R,ugm-3,5.69268,R,ugm-3
01-01-2020,13:00,0.80920,R,ugm-3,6.23088,R,ugm-3,7.47164,R,ugm-3
01-01-2020,14:00,0.89590,R,ugm-3,5.65320,R,ugm-3,7.02690,R,ugm-3
01-01-2020,15:00,0.92480,R,ugm-3,5.78679,R,ugm-3,7.20480,R,ugm-3
01-01-2020,16:00,0.98260,R,ugm-3,6.40974,R,ugm-3,7.91638,R,ugm-3
01-01-2020,17:00,1.04040,R,ugm-3,7.03270,R,ugm-3,8.62796,R,ugm-3
01-01-2020,18:00,0.78030,R,ugm-3,5.38571,R,ugm-3,6.58216,R,ugm-3
01-01-2020,19:00,0.52020,R,ugm-3,4.80610,R,ugm-3,5.60373,R,ugm-3
01-01-2020,20:00,0.46240,R,ugm-3,5.16157,R,ugm-3,5.87057,R,ugm-3
01-01-2020,21:00,0.52020,R,ugm-3,6.00690,R,ugm-3,6.80453,R,ugm-3
01-01-2020,22:00,0.54910,R,ugm-3,6.62970,R,ugm-3,7.47164,R,ugm-3
01-01-2020,23:00,1.50280,R,ugm-3,8.54740,R,ugm-3,10.85167,R,ugm-3
01-01-2020,24:00,1.41610,R,ugm-3,7.96875,R,ugm-3,10.14008,R,ugm-3
02-01-2020,01:00,0.28885,R,ugm-3,4.71403,R,ugm-3,5.15693,R,ugm-3
02-01-2020,02:00,0.57771,R,ugm-3,3.82656,R,ugm-3,4.71237,R,ugm-3
02-01-2020,03:00,0.49105,R,ugm-3,3.02585,R,ugm-3,3.77879,R,ugm-3
02-01-2020,04:00,0.20220,R,ugm-3,2.71300,R,ugm-3,3.02303,R,ugm-3
02-01-2020,05:00,0.20220,R,ugm-3,2.57963,R,ugm-3,2.88966,R,ugm-3
02-01-2020,06:00,0.34663,R,ugm-3,2.58046,R,ugm-3,3.11194,R,ugm-3
02-01-2020,07:00,0.80879,R,ugm-3,4.45028,R,ugm-3,5.69041,R,ugm-3
02-01-2020,08:00,0.51994,R,ugm-3,3.33721,R,ugm-3,4.13444,R,ugm-3
02-01-2020,09:00,0.49105,R,ugm-3,2.49238,R,ugm-3,3.24531,R,ugm-3
02-01-2020,10:00,0.28885,R,ugm-3,2.93578,R,ugm-3,3.37868,R,ugm-3
02-01-2020,11:00,0.51994,R,ugm-3,3.33721,R,ugm-3,4.13444,R,ugm-3
02-01-2020,12:00,0.60659,R,ugm-3,3.29326,R,ugm-3,4.22335,R,ugm-3
02-01-2020,13:00,0.49105,R,ugm-3,3.60379,R,ugm-3,4.35672,R,ugm-3
02-01-2020,14:00,0.51994,R,ugm-3,3.60395,R,ugm-3,4.40118,R,ugm-3
02-01-2020,15:00,0.54882,R,ugm-3,3.47075,R,ugm-3,4.31227,R,ugm-3
02-01-2020,16:00,0.46217,R,ugm-3,3.78145,R,ugm-3,4.49009,R,ugm-3
02-01-2020,17:00,0.43328,R,ugm-3,4.35921,R,ugm-3,5.02357,R,ugm-3
02-01-2020,18:00,0.51994,R,ugm-3,4.27080,R,ugm-3,5.06802,R,ugm-3
02-01-2020,19:00,0.34663,R,ugm-3,4.13643,R,ugm-3,4.66792,R,ugm-3
02-01-2020,20:00,0.46217,R,ugm-3,4.58166,R,ugm-3,5.29030,R,ugm-3
02-01-2020,21:00,0.51994,R,ugm-3,3.60395,R,ugm-3,4.40118,R,ugm-3
02-01-2020,22:00,1.53093,R,ugm-3,4.63226,R,ugm-3,6.97964,R,ugm-3
02-01-2020,23:00,3.29293,R,ugm-3,8.64346,R,ugm-3,13.69255,R,ugm-3
02-01-2020,24:00,1.41538,R,ugm-3,5.78746,R,ugm-3,7.95768,R,ugm-3
03-01-2020,01:00,1.06822,R,ugm-3,4.93901,R,ugm-3,6.57692,R,ugm-3
03-01-2020,02:00,1.03935,R,ugm-3,3.87231,R,ugm-3,5.46595,R,ugm-3
03-01-2020,03:00,0.98161,R,ugm-3,3.47202,R,ugm-3,4.97713,R,ugm-3
03-01-2020,04:00,0.80838,R,ugm-3,3.15992,R,ugm-3,4.39943,R,ugm-3
03-01-2020,05:00,1.27031,R,ugm-3,4.45138,R,ugm-3,6.39916,R,ugm-3
03-01-2020,06:00,1.90547,R,ugm-3,5.03284,R,ugm-3,7.95451,R,ugm-3
03-01-2020,07:00,10.91314,R,ugm-3,30.32726,R,ugm-3,47.06051,R,ugm-3
03-01-2020,08:00,6.58253,R,ugm-3,14.57037,R,ugm-3,24.66344,R,ugm-3
03-01-2020,09:00,1.35693,R,ugm-3,11.73982,R,ugm-3,13.82041,R,ugm-3
03-01-2020,10:00,22.86563,R,ugm-3,40.97436,R,ugm-3,76.03449,R,ugm-3
03-01-2020,11:00,9.67170,R,ugm-3,20.14347,R,ugm-3,34.97320,R,ugm-3
03-01-2020,12:00,13.59812,R,ugm-3,22.25531,R,ugm-3,43.10547,R,ugm-3
03-01-2020,13:00,22.98111,R,ugm-3,30.84304,R,ugm-3,66.08024,R,ugm-3
03-01-2020,14:00,25.63722,R,ugm-3,37.96893,R,ugm-3,77.27878,R,ugm-3
03-01-2020,15:00,21.56644,R,ugm-3,31.63456,R,ugm-3,64.70264,R,ugm-3
03-01-2020,16:00,15.04166,R,ugm-3,25.64119,R,ugm-3,48.70474,R,ugm-3
03-01-2020,17:00,23.21207,R,ugm-3,41.37636,R,ugm-3,76.96771,R,ugm-3
03-01-2020,18:00,10.27798,R,ugm-3,24.01322,R,ugm-3,39.77257,R,ugm-3
03-01-2020,19:00,2.48288,R,ugm-3,8.01364,R,ugm-3,11.82068,R,ugm-3
03-01-2020,20:00,5.39883,R,ugm-3,18.20734,R,ugm-3,26.48542,R,ugm-3
03-01-2020,21:00,6.26495,R,ugm-3,13.32421,R,ugm-3,22.93033,R,ugm-3
03-01-2020,22:00,2.62724,R,ugm-3,6.59246,R,ugm-3,10.62083,R,ugm-3
03-01-2020,23:00,2.62724,R,ugm-3,6.28139,R,ugm-3,10.30976,R,ugm-3
03-01-2020,24:00,1.09709,R,ugm-3,5.29469,R,ugm-3,6.97687,R,ugm-3
04-01-2020,01:00,1.09653,R,ugm-3,4.98181,R,ugm-3,6.66314,R,ugm-3
04-01-2020,02:00,1.32738,R,ugm-3,4.18364,R,ugm-3,6.21893,R,ugm-3
04-01-2020,03:00,0.57712,R,ugm-3,2.71319,R,ugm-3,3.59810,R,ugm-3
04-01-2020,04:00,0.51941,R,ugm-3,2.75726,R,ugm-3,3.55367,R,ugm-3
04-01-2020,05:00,0.60598,R,ugm-3,2.80221,R,ugm-3,3.73136,R,ugm-3
04-01-2020,06:00,1.09653,R,ugm-3,3.16056,R,ugm-3,4.84188,R,ugm-3
04-01-2020,07:00,1.50052,R,ugm-3,6.13922,R,ugm-3,8.43998,R,ugm-3
04-01-2020,08:00,1.78908,R,ugm-3,5.69676,R,ugm-3,8.43998,R,ugm-3
04-01-2020,09:00,4.67469,R,ugm-3,13.35471,R,ugm-3,20.52247,R,ugm-3
04-01-2020,10:00,5.68465,R,ugm-3,15.75959,R,ugm-3,24.47593,R,ugm-3
04-01-2020,11:00,5.97321,R,ugm-3,16.51650,R,ugm-3,25.67530,R,ugm-3
04-01-2020,12:00,7.73343,R,ugm-3,20.12530,R,ugm-3,31.98307,R,ugm-3
04-01-2020,13:00,2.88561,R,ugm-3,9.12384,R,ugm-3,13.54838,R,ugm-3
04-01-2020,14:00,7.38716,R,ugm-3,8.97354,R,ugm-3,20.30036,R,ugm-3
04-01-2020,15:00,2.13535,R,ugm-3,6.89823,R,ugm-3,10.17239,R,ugm-3
04-01-2020,16:00,1.52937,R,ugm-3,5.73960,R,ugm-3,8.08461,R,ugm-3
04-01-2020,17:00,2.62591,R,ugm-3,9.96626,R,ugm-3,13.99259,R,ugm-3
04-01-2020,18:00,1.00996,R,ugm-3,5.91413,R,ugm-3,7.46272,R,ugm-3
04-01-2020,19:00,0.57712,R,ugm-3,4.75655,R,ugm-3,5.64146,R,ugm-3
04-01-2020,20:00,0.60598,R,ugm-3,4.49020,R,ugm-3,5.41935,R,ugm-3
04-01-2020,21:00,0.80797,R,ugm-3,4.35817,R,ugm-3,5.59704,R,ugm-3
04-01-2020,22:00,0.43284,R,ugm-3,5.15546,R,ugm-3,5.81914,R,ugm-3
04-01-2020,23:00,0.51941,R,ugm-3,4.84504,R,ugm-3,5.64146,R,ugm-3
04-01-2020,24:00,0.25971,R,ugm-3,4.57694,R,ugm-3,4.97514,R,ugm-3
05-01-2020,01:00,0.37494,R,ugm-3,4.44267,R,ugm-3,5.01756,R,ugm-3
05-01-2020,02:00,0.49031,R,ugm-3,3.86615,R,ugm-3,4.61794,R,ugm-3
05-01-2020,03:00,0.23073,R,ugm-3,3.28728,R,ugm-3,3.64106,R,ugm-3
05-01-2020,04:00,0.40378,R,ugm-3,3.02194,R,ugm-3,3.64106,R,ugm-3
05-01-2020,05:00,0.49031,R,ugm-3,3.24450,R,ugm-3,3.99629,R,ugm-3
05-01-2020,06:00,0.57683,R,ugm-3,2.97862,R,ugm-3,3.86308,R,ugm-3
05-01-2020,07:00,0.63451,R,ugm-3,3.24540,R,ugm-3,4.21831,R,ugm-3
05-01-2020,08:00,0.63451,R,ugm-3,2.71256,R,ugm-3,3.68547,R,ugm-3
05-01-2020,09:00,0.46146,R,ugm-3,2.88909,R,ugm-3,3.59666,R,ugm-3
05-01-2020,10:00,0.51915,R,ugm-3,3.55550,R,ugm-3,4.35152,R,ugm-3
05-01-2020,11:00,0.86524,R,ugm-3,3.51326,R,ugm-3,4.83995,R,ugm-3
05-01-2020,12:00,0.98061,R,ugm-3,4.00242,R,ugm-3,5.50600,R,ugm-3
05-01-2020,13:00,0.49031,R,ugm-3,3.55532,R,ugm-3,4.30711,R,ugm-3
05-01-2020,14:00,0.63451,R,ugm-3,4.08906,R,ugm-3,5.06197,R,ugm-3
05-01-2020,15:00,0.63451,R,ugm-3,4.53310,R,ugm-3,5.50600,R,ugm-3
05-01-2020,16:00,0.66335,R,ugm-3,4.75529,R,ugm-3,5.77242,R,ugm-3
05-01-2020,17:00,1.00945,R,ugm-3,5.51231,R,ugm-3,7.06011,R,ugm-3
05-01-2020,18:00,1.21134,R,ugm-3,6.44604,R,ugm-3,8.30340,R,ugm-3
05-01-2020,19:00,2.65341,R,ugm-3,7.60954,R,ugm-3,11.67805,R,ugm-3
05-01-2020,20:00,0.46146,R,ugm-3,4.08798,R,ugm-3,4.79555,R,ugm-3
05-01-2020,21:00,0.46146,R,ugm-3,4.13239,R,ugm-3,4.83995,R,ugm-3
05-01-2020,22:00,0.46146,R,ugm-3,3.73276,R,ugm-3,4.44032,R,ugm-3
05-01-2020,23:00,0.46146,R,ugm-3,3.19992,R,ugm-3,3.90748,R,ugm-3
05-01-2020,24:00,0.40378,R,ugm-3,2.88873,R,ugm-3,3.50785,R,ugm-3
06-01-2020,01:00,0.37475,R,ugm-3,2.93185,R,ugm-3,3.50646,R,ugm-3
06-01-2020,02:00,0.40358,R,ugm-3,2.17748,R,ugm-3,2.79629,R,ugm-3
06-01-2020,03:00,0.37475,R,ugm-3,2.17730,R,ugm-3,2.75190,R,ugm-3
06-01-2020,04:00,0.28827,R,ugm-3,2.35428,R,ugm-3,2.79629,R,ugm-3
06-01-2020,05:00,0.49006,R,ugm-3,2.93259,R,ugm-3,3.68400,R,ugm-3
06-01-2020,06:00,0.43240,R,ugm-3,2.31082,R,ugm-3,2.97383,R,ugm-3
06-01-2020,07:00,5.85184,R,ugm-3,7.93819,R,ugm-3,16.91088,R,ugm-3
06-01-2020,08:00,2.79620,R,ugm-3,9.38330,R,ugm-3,13.67074,R,ugm-3
06-01-2020,09:00,0.63419,R,ugm-3,3.42176,R,ugm-3,4.39417,R,ugm-3
06-01-2020,10:00,0.63419,R,ugm-3,4.13192,R,ugm-3,5.10433,R,ugm-3
06-01-2020,11:00,0.74950,R,ugm-3,3.24495,R,ugm-3,4.39417,R,ugm-3
06-01-2020,12:00,0.66302,R,ugm-3,3.28879,R,ugm-3,4.30540,R,ugm-3
06-01-2020,13:00,0.66302,R,ugm-3,3.46633,R,ugm-3,4.48294,R,ugm-3
06-01-2020,14:00,5.36178,R,ugm-3,15.34742,R,ugm-3,23.56871,R,ugm-3
06-01-2020,15:00,5.99597,R,ugm-3,20.36706,R,ugm-3,29.56076,R,ugm-3
06-01-2020,16:00,6.28424,R,ugm-3,19.74751,R,ugm-3,29.38321,R,ugm-3
06-01-2020,17:00,21.07239,R,ugm-3,31.07198,R,ugm-3,63.38252,R,ugm-3
06-01-2020,18:00,10.89653,R,ugm-3,20.26536,R,ugm-3,36.97314,R,ugm-3
06-01-2020,19:00,5.30413,R,ugm-3,13.66040,R,ugm-3,21.79329,R,ugm-3
06-01-2020,20:00,1.21073,R,ugm-3,5.68912,R,ugm-3,7.54554,R,ugm-3
06-01-2020,21:00,4.09341,R,ugm-3,9.16969,R,ugm-3,15.44616,R,ugm-3
06-01-2020,22:00,0.77832,R,ugm-3,3.91092,R,ugm-3,5.10433,R,ugm-3
06-01-2020,23:00,0.25944,R,ugm-3,3.15304,R,ugm-3,3.55084,R,ugm-3
06-01-2020,24:00,0.69184,R,ugm-3,3.77721,R,ugm-3,4.83802,R,ugm-3
07-01-2020,01:00,0.48981,R,ugm-3,2.88714,R,ugm-3,3.63816,R,ugm-3
07-01-2020,02:00,0.31693,R,ugm-3,2.22048,R,ugm-3,2.70644,R,ugm-3
07-01-2020,03:00,0.46100,R,ugm-3,2.26580,R,ugm-3,2.97264,R,ugm-3
07-01-2020,04:00,0.43218,R,ugm-3,3.10860,R,ugm-3,3.77126,R,ugm-3
07-01-2020,05:00,0.48981,R,ugm-3,2.57656,R,ugm-3,3.32759,R,ugm-3
07-01-2020,06:00,0.40337,R,ugm-3,2.70910,R,ugm-3,3.32759,R,ugm-3
07-01-2020,07:00,0.92199,R,ugm-3,3.91044,R,ugm-3,5.32414,R,ugm-3
07-01-2020,08:00,3.86083,R,ugm-3,9.56451,R,ugm-3,15.48437,R,ugm-3
07-01-2020,09:00,0.89318,R,ugm-3,5.59623,R,ugm-3,6.96575,R,ugm-3
07-01-2020,10:00,1.00843,R,ugm-3,5.19768,R,ugm-3,6.74391,R,ugm-3
07-01-2020,11:00,0.86436,R,ugm-3,4.08753,R,ugm-3,5.41287,R,ugm-3
07-01-2020,12:00,0.74912,R,ugm-3,3.24379,R,ugm-3,4.39241,R,ugm-3
07-01-2020,13:00,1.12367,R,ugm-3,4.13361,R,ugm-3,5.85655,R,ugm-3
07-01-2020,14:00,0.95080,R,ugm-3,4.17684,R,ugm-3,5.63471,R,ugm-3
07-01-2020,15:00,1.12367,R,ugm-3,4.57729,R,ugm-3,6.30023,R,ugm-3
07-01-2020,16:00,1.23892,R,ugm-3,4.79989,R,ugm-3,6.69954,R,ugm-3
07-01-2020,17:00,0.72030,R,ugm-3,4.61900,R,ugm-3,5.72345,R,ugm-3
07-01-2020,18:00,0.92199,R,ugm-3,3.99918,R,ugm-3,5.41287,R,ugm-3
07-01-2020,19:00,0.83555,R,ugm-3,4.17608,R,ugm-3,5.45724,R,ugm-3
07-01-2020,20:00,0.69149,R,ugm-3,3.11030,R,ugm-3,4.17058,R,ugm-3
07-01-2020,21:00,0.72030,R,ugm-3,2.00130,R,ugm-3,3.10575,R,ugm-3
07-01-2020,22:00,0.63387,R,ugm-3,2.04510,R,ugm-3,3.01701,R,ugm-3
07-01-2020,23:00,1.15249,R,ugm-3,3.06897,R,ugm-3,4.83609,R,ugm-3
07-01-2020,24:00,0.97961,R,ugm-3,3.11220,R,ugm-3,4.61425,R,ugm-3
08-01-2020,01:00,1.00791,R,ugm-3,2.88957,R,ugm-3,4.43501,R,ugm-3
08-01-2020,02:00,0.40317,R,ugm-3,2.13153,R,ugm-3,2.74971,R,ugm-3
08-01-2020,03:00,0.71994,R,ugm-3,2.31107,R,ugm-3,3.41496,R,ugm-3
08-01-2020,04:00,0.34557,R,ugm-3,2.17549,R,ugm-3,2.70536,R,ugm-3
08-01-2020,05:00,0.43196,R,ugm-3,2.35348,R,ugm-3,3.01581,R,ugm-3
08-01-2020,06:00,0.86393,R,ugm-3,2.84424,R,ugm-3,4.16891,R,ugm-3
08-01-2020,07:00,0.63355,R,ugm-3,2.79834,R,ugm-3,3.76976,R,ugm-3
08-01-2020,08:00,4.89558,R,ugm-3,10.54405,R,ugm-3,18.05049,R,ugm-3
08-01-2020,09:00,42.53391,R,ugm-3,56.47896,R,ugm-3,121.69670,R,ugm-3
08-01-2020,10:00,8.20729,R,ugm-3,23.78276,R,ugm-3,36.36709,R,ugm-3
08-01-2020,11:00,8.84083,R,ugm-3,21.48084,R,ugm-3,35.03659,R,ugm-3
08-01-2020,12:00,1.52627,R,ugm-3,6.79588,R,ugm-3,9.13612,R,ugm-3
08-01-2020,13:00,1.58386,R,ugm-3,6.84062,R,ugm-3,9.26917,R,ugm-3
08-01-2020,14:00,1.09431,R,ugm-3,5.28506,R,ugm-3,6.96297,R,ugm-3
08-01-2020,15:00,2.10222,R,ugm-3,9.06163,R,ugm-3,12.28498,R,ugm-3
08-01-2020,16:00,33.66428,R,ugm-3,34.15528,R,ugm-3,85.77311,R,ugm-3
08-01-2020,17:00,12.98767,R,ugm-3,25.85516,R,ugm-3,45.76932,R,ugm-3
08-01-2020,18:00,1.35348,R,ugm-3,7.59301,R,ugm-3,9.66832,R,ugm-3
08-01-2020,19:00,1.78545,R,ugm-3,8.03943,R,ugm-3,10.77708,R,ugm-3
08-01-2020,20:00,4.40602,R,ugm-3,12.13735,R,ugm-3,18.89315,R,ugm-3
08-01-2020,21:00,9.47438,R,ugm-3,28.53678,R,ugm-3,43.06396,R,ugm-3
08-01-2020,22:00,2.18861,R,ugm-3,14.02942,R,ugm-3,17.38524,R,ugm-3
08-01-2020,23:00,1.09431,R,ugm-3,14.99773,R,ugm-3,16.67564,R,ugm-3
08-01-2020,24:00,1.20950,R,ugm-3,16.10726,R,ugm-3,17.96180,R,ugm-3
09-01-2020,01:00,1.06497,R,ugm-3,13.97208,R,ugm-3,15.60501,R,ugm-3
09-01-2020,02:00,6.73519,R,ugm-3,21.50353,R,ugm-3,31.83067,R,ugm-3
09-01-2020,03:00,1.52549,R,ugm-3,14.68459,R,ugm-3,17.02364,R,ugm-3
09-01-2020,04:00,1.52549,R,ugm-3,16.41356,R,ugm-3,18.75261,R,ugm-3
09-01-2020,05:00,1.23766,R,ugm-3,11.00301,R,ugm-3,12.90073,R,ugm-3
09-01-2020,06:00,8.40459,R,ugm-3,13.35792,R,ugm-3,26.24478,R,ugm-3
09-01-2020,07:00,8.20311,R,ugm-3,15.35149,R,ugm-3,27.92942,R,ugm-3
09-01-2020,08:00,34.28038,R,ugm-3,43.28416,R,ugm-3,95.84666,R,ugm-3
09-01-2020,09:00,50.11094,R,ugm-3,51.15195,R,ugm-3,127.98766,R,ugm-3
09-01-2020,10:00,49.13233,R,ugm-3,53.76079,R,ugm-3,129.09597,R,ugm-3
09-01-2020,11:00,30.79765,R,ugm-3,29.69432,R,ugm-3,76.91673,R,ugm-3
09-01-2020,12:00,24.40786,R,ugm-3,30.58105,R,ugm-3,68.00591,R,ugm-3
09-01-2020,13:00,50.57147,R,ugm-3,52.52944,R,ugm-3,130.07128,R,ugm-3
09-01-2020,14:00,35.31656,R,ugm-3,41.03038,R,ugm-3,95.18168,R,ugm-3
09-01-2020,15:00,34.88481,R,ugm-3,53.21880,R,ugm-3,106.70810,R,ugm-3
09-01-2020,16:00,80.27537,R,ugm-3,73.26105,R,ugm-3,196.34823,R,ugm-3
09-01-2020,17:00,108.65526,R,ugm-3,80.32910,R,ugm-3,246.93151,R,ugm-3
09-01-2020,18:00,138.58943,R,ugm-3,79.38374,R,ugm-3,291.88457,R,ugm-3
09-01-2020,19:00,140.34518,R,ugm-3,78.19893,R,ugm-3,293.39187,R,ugm-3
09-01-2020,20:00,182.65597,R,ugm-3,78.53626,R,ugm-3,358.60484,R,ugm-3
09-01-2020,21:00,111.07302,R,ugm-3,62.83454,R,ugm-3,233.14413,R,ugm-3
09-01-2020,22:00,87.96039,R,ugm-3,56.24629,R,ugm-3,191.11701,R,ugm-3
09-01-2020,23:00,71.00729,R,ugm-3,52.31630,R,ugm-3,161.19263,R,ugm-3
09-01-2020,24:00,31.51722,R,ugm-3,43.57535,R,ugm-3,91.90108,R,ugm-3
10-01-2020,01:00,4.63168,R,ugm-3,26.44442,R,ugm-3,33.54623,R,ugm-3
10-01-2020,02:00,4.54538,R,ugm-3,26.62107,R,ugm-3,33.59055,R,ugm-3
10-01-2020,03:00,14.09642,R,ugm-3,38.25496,R,ugm-3,59.86916,R,ugm-3
10-01-2020,04:00,8.05510,R,ugm-3,43.35261,R,ugm-3,55.70358,R,ugm-3
10-01-2020,05:00,36.13286,R,ugm-3,50.90802,R,ugm-3,106.31097,R,ugm-3
10-01-2020,06:00,13.40598,R,ugm-3,37.80691,R,ugm-3,58.36246,R,ugm-3
10-01-2020,07:00,35.29859,R,ugm-3,35.56922,R,ugm-3,89.69296,R,ugm-3
10-01-2020,08:00,76.66726,R,ugm-3,55.62703,R,ugm-3,173.18186,R,ugm-3
10-01-2020,09:00,84.06069,R,ugm-3,55.01476,R,ugm-3,183.90602,R,ugm-3
10-01-2020,10:00,68.00803,R,ugm-3,53.12830,R,ugm-3,157.40583,R,ugm-3
10-01-2020,11:00,54.63082,R,ugm-3,49.53254,R,ugm-3,133.29863,R,ugm-3
10-01-2020,12:00,28.76820,R,ugm-3,51.29893,R,ugm-3,95.40956,R,ugm-3
10-01-2020,13:00,16.82940,R,ugm-3,50.59383,R,ugm-3,76.39855,R,ugm-3
10-01-2020,14:00,2.79052,R,ugm-3,15.70720,R,ugm-3,19.98593,R,ugm-3
10-01-2020,15:00,1.09319,R,ugm-3,8.33892,R,ugm-3,10.01512,R,ugm-3
10-01-2020,16:00,1.15073,R,ugm-3,8.38364,R,ugm-3,10.14807,R,ugm-3
10-01-2020,17:00,1.03566,R,ugm-3,7.36359,R,ugm-3,8.95157,R,ugm-3
10-01-2020,18:00,0.74797,R,ugm-3,5.36739,R,ugm-3,6.51426,R,ugm-3
10-01-2020,19:00,0.71921,R,ugm-3,5.72170,R,ugm-3,6.82446,R,ugm-3
10-01-2020,20:00,0.51783,R,ugm-3,4.25789,R,ugm-3,5.05188,R,ugm-3
10-01-2020,21:00,0.40275,R,ugm-3,3.94687,R,ugm-3,4.56442,R,ugm-3
10-01-2020,22:00,0.46029,R,ugm-3,2.88372,R,ugm-3,3.58949,R,ugm-3
10-01-2020,23:00,0.37399,R,ugm-3,2.52859,R,ugm-3,3.10203,R,ugm-3
10-01-2020,24:00,0.34522,R,ugm-3,2.52839,R,ugm-3,3.05772,R,ugm-3
11-01-2020,01:00,0.31629,R,ugm-3,2.43863,R,ugm-3,2.92360,R,ugm-3
11-01-2020,02:00,0.48881,R,ugm-3,2.35129,R,ugm-3,3.10079,R,ugm-3
11-01-2020,03:00,0.51757,R,ugm-3,2.08572,R,ugm-3,2.87931,R,ugm-3
11-01-2020,04:00,0.23003,R,ugm-3,1.90644,R,ugm-3,2.25915,R,ugm-3
11-01-2020,05:00,0.23003,R,ugm-3,2.03933,R,ugm-3,2.39204,R,ugm-3
11-01-2020,06:00,0.25878,R,ugm-3,2.21673,R,ugm-3,2.61352,R,ugm-3
11-01-2020,07:00,0.46006,R,ugm-3,2.21819,R,ugm-3,2.92360,R,ugm-3
11-01-2020,08:00,0.25878,R,ugm-3,2.39392,R,ugm-3,2.79071,R,ugm-3
11-01-2020,09:00,0.31629,R,ugm-3,2.66012,R,ugm-3,3.14509,R,ugm-3
11-01-2020,10:00,0.86261,R,ugm-3,3.06276,R,ugm-3,4.38540,R,ugm-3
11-01-2020,11:00,10.69632,R,ugm-3,23.24502,R,ugm-3,39.64582,R,ugm-3
11-01-2020,12:00,2.64533,R,ugm-3,10.60620,R,ugm-3,14.66231,R,ugm-3
11-01-2020,13:00,1.32266,R,ugm-3,6.12259,R,ugm-3,8.15065,R,ugm-3
11-01-2020,14:00,1.26516,R,ugm-3,4.97045,R,ugm-3,6.91033,R,ugm-3
11-01-2020,15:00,0.94887,R,ugm-3,4.48089,R,ugm-3,5.93580,R,ugm-3
11-01-2020,16:00,2.53031,R,ugm-3,6.30855,R,ugm-3,10.18831,R,ugm-3
11-01-2020,17:00,1.86898,R,ugm-3,5.41781,R,ugm-3,8.28354,R,ugm-3
11-01-2020,18:00,1.81147,R,ugm-3,6.61341,R,ugm-3,9.39096,R,ugm-3
11-01-2020,19:00,2.90411,R,ugm-3,8.12744,R,ugm-3,12.58035,R,ugm-3
11-01-2020,20:00,3.24915,R,ugm-3,10.69918,R,ugm-3,15.68114,R,ugm-3
11-01-2020,21:00,6.64207,R,ugm-3,17.19118,R,ugm-3,27.37555,R,ugm-3
11-01-2020,22:00,2.78910,R,ugm-3,9.67700,R,ugm-3,13.95355,R,ugm-3
11-01-2020,23:00,4.42805,R,ugm-3,12.52391,R,ugm-3,19.31349,R,ugm-3
11-01-2020,24:00,4.97437,R,ugm-3,19.57110,R,ugm-3,27.19836,R,ugm-3
12-01-2020,01:00,2.06920,R,ugm-3,13.65340,R,ugm-3,16.82613,R,ugm-3
12-01-2020,02:00,0.57478,R,ugm-3,8.10738,R,ugm-3,8.98870,R,ugm-3
12-01-2020,03:00,0.57478,R,ugm-3,4.91927,R,ugm-3,5.80059,R,ugm-3
12-01-2020,04:00,1.63812,R,ugm-3,8.20385,R,ugm-3,10.71559,R,ugm-3
12-01-2020,05:00,0.94839,R,ugm-3,6.56038,R,ugm-3,8.01455,R,ugm-3
12-01-2020,06:00,1.35073,R,ugm-3,11.38982,R,ugm-3,13.46091,R,ugm-3
12-01-2020,07:00,1.20704,R,ugm-3,9.57330,R,ugm-3,11.42406,R,ugm-3
12-01-2020,08:00,2.90263,R,ugm-3,13.70388,R,ugm-3,18.15451,R,ugm-3
12-01-2020,09:00,4.36831,R,ugm-3,13.49337,R,ugm-3,20.19136,R,ugm-3
12-01-2020,10:00,5.23048,R,ugm-3,12.17140,R,ugm-3,20.19136,R,ugm-3
12-01-2020,11:00,0.94839,R,ugm-3,6.60466,R,ugm-3,8.05883,R,ugm-3
12-01-2020,12:00,1.29325,R,ugm-3,5.67736,R,ugm-3,7.66032,R,ugm-3
12-01-2020,13:00,3.53489,R,ugm-3,6.71245,R,ugm-3,12.13253,R,ugm-3
12-01-2020,14:00,3.53489,R,ugm-3,10.52046,R,ugm-3,15.94055,R,ugm-3
12-01-2020,15:00,1.17830,R,ugm-3,4.92376,R,ugm-3,6.73045,R,ugm-3
12-01-2020,16:00,1.32199,R,ugm-3,5.23478,R,ugm-3,7.26181,R,ugm-3
12-01-2020,17:00,1.52316,R,ugm-3,6.38754,R,ugm-3,8.72302,R,ugm-3
12-01-2020,18:00,10.74835,R,ugm-3,26.29322,R,ugm-3,42.77380,R,ugm-3
12-01-2020,19:00,1.52316,R,ugm-3,7.49452,R,ugm-3,9.83000,R,ugm-3
12-01-2020,20:00,0.89091,R,ugm-3,4.25743,R,ugm-3,5.62347,R,ugm-3
12-01-2020,21:00,0.71847,R,ugm-3,3.32629,R,ugm-3,4.42793,R,ugm-3
12-01-2020,22:00,0.37361,R,ugm-3,2.57098,R,ugm-3,3.14383,R,ugm-3
12-01-2020,23:00,0.45982,R,ugm-3,2.26166,R,ugm-3,2.96671,R,ugm-3
12-01-2020,24:00,0.51730,R,ugm-3,2.30637,R,ugm-3,3.09955,R,ugm-3
13-01-2020,01:00,0.22979,R,ugm-3,2.17057,R,ugm-3,2.52291,R,ugm-3
13-01-2020,02:00,0.31597,R,ugm-3,2.21548,R,ugm-3,2.69996,R,ugm-3
13-01-2020,03:00,0.34469,R,ugm-3,2.30422,R,ugm-3,2.83274,R,ugm-3
13-01-2020,04:00,0.31597,R,ugm-3,2.92367,R,ugm-3,3.40814,R,ugm-3
13-01-2020,05:00,0.51704,R,ugm-3,3.14650,R,ugm-3,3.93928,R,ugm-3
13-01-2020,06:00,0.51704,R,ugm-3,3.58912,R,ugm-3,4.38190,R,ugm-3
13-01-2020,07:00,0.66066,R,ugm-3,4.82954,R,ugm-3,5.84253,R,ugm-3
13-01-2020,08:00,1.17769,R,ugm-3,8.55144,R,ugm-3,10.35721,R,ugm-3
13-01-2020,09:00,0.91918,R,ugm-3,9.56749,R,ugm-3,10.97687,R,ugm-3
13-01-2020,10:00,4.76823,R,ugm-3,18.40481,R,ugm-3,25.71599,R,ugm-3
13-01-2020,11:00,1.32132,R,ugm-3,8.77384,R,ugm-3,10.79983,R,ugm-3
13-01-2020,12:00,0.94790,R,ugm-3,7.62020,R,ugm-3,9.07363,R,ugm-3
13-01-2020,13:00,0.83300,R,ugm-3,7.30950,R,ugm-3,8.58675,R,ugm-3
13-01-2020,14:00,1.09152,R,ugm-3,8.15243,R,ugm-3,9.82607,R,ugm-3
13-01-2020,15:00,0.77556,R,ugm-3,6.68940,R,ugm-3,7.87856,R,ugm-3
13-01-2020,16:00,1.00535,R,ugm-3,6.73540,R,ugm-3,8.27692,R,ugm-3
13-01-2020,17:00,0.66066,R,ugm-3,4.78527,R,ugm-3,5.79827,R,ugm-3
13-01-2020,18:00,0.57449,R,ugm-3,3.36825,R,ugm-3,4.24911,R,ugm-3
13-01-2020,19:00,0.40214,R,ugm-3,3.18989,R,ugm-3,3.80650,R,ugm-3
13-01-2020,20:00,0.45959,R,ugm-3,2.92476,R,ugm-3,3.62945,R,ugm-3
13-01-2020,21:00,0.28724,R,ugm-3,2.83493,R,ugm-3,3.27536,R,ugm-3
13-01-2020,22:00,0.60321,R,ugm-3,1.99636,R,ugm-3,2.92127,R,ugm-3
13-01-2020,23:00,0.45959,R,ugm-3,1.77396,R,ugm-3,2.47865,R,ugm-3
13-01-2020,24:00,0.60321,R,ugm-3,1.64226,R,ugm-3,2.56717,R,ugm-3
14-01-2020,01:00,0.45935,R,ugm-3,1.59635,R,ugm-3,2.30068,R,ugm-3
14-01-2020,02:00,0.57419,R,ugm-3,1.37602,R,ugm-3,2.25644,R,ugm-3
14-01-2020,03:00,0.43064,R,ugm-3,1.55188,R,ugm-3,2.21219,R,ugm-3
14-01-2020,04:00,0.37323,R,ugm-3,1.37446,R,ugm-3,1.94673,R,ugm-3
14-01-2020,05:00,0.60290,R,ugm-3,1.19927,R,ugm-3,2.12371,R,ugm-3
14-01-2020,06:00,0.54548,R,ugm-3,1.64126,R,ugm-3,2.47766,R,ugm-3
14-01-2020,07:00,0.68903,R,ugm-3,1.99633,R,ugm-3,3.05283,R,ugm-3
14-01-2020,08:00,0.57419,R,ugm-3,2.83607,R,ugm-3,3.71649,R,ugm-3
14-01-2020,09:00,0.97613,R,ugm-3,4.03378,R,ugm-3,5.53049,R,ugm-3
14-01-2020,10:00,1.43548,R,ugm-3,4.12584,R,ugm-3,6.32688,R,ugm-3
14-01-2020,11:00,0.68903,R,ugm-3,3.54487,R,ugm-3,4.60136,R,ugm-3
14-01-2020,12:00,0.86129,R,ugm-3,3.85591,R,ugm-3,5.17654,R,ugm-3
14-01-2020,13:00,1.23451,R,ugm-3,3.54911,R,ugm-3,5.44200,R,ugm-3
14-01-2020,14:00,0.80387,R,ugm-3,4.03244,R,ugm-3,5.26502,R,ugm-3
14-01-2020,15:00,0.91871,R,ugm-3,5.40489,R,ugm-3,6.81356,R,ugm-3
14-01-2020,16:00,0.91871,R,ugm-3,7.83831,R,ugm-3,9.24697,R,ugm-3
14-01-2020,17:00,0.63161,R,ugm-3,10.31373,R,ugm-3,11.28219,R,ugm-3
14-01-2020,18:00,1.00484,R,ugm-3,7.08683,R,ugm-3,8.62756,R,ugm-3
14-01-2020,19:00,0.71774,R,ugm-3,4.65119,R,ugm-3,5.75171,R,ugm-3
14-01-2020,20:00,0.80387,R,ugm-3,3.67849,R,ugm-3,4.91107,R,ugm-3
14-01-2020,21:00,0.60290,R,ugm-3,2.65932,R,ugm-3,3.58376,R,ugm-3
14-01-2020,22:00,0.54548,R,ugm-3,2.43765,R,ugm-3,3.27405,R,ugm-3
14-01-2020,23:00,0.51677,R,ugm-3,2.70289,R,ugm-3,3.49527,R,ugm-3
14-01-2020,24:00,0.17226,R,ugm-3,2.03656,R,ugm-3,2.30068,R,ugm-3
15-01-2020,01:00,0.37304,R,ugm-3,1.72778,R,ugm-3,2.29976,R,ugm-3
15-01-2020,02:00,0.28695,R,ugm-3,1.72710,R,ugm-3,2.16708,R,ugm-3
15-01-2020,03:00,0.37304,R,ugm-3,1.72778,R,ugm-3,2.29976,R,ugm-3
15-01-2020,04:00,0.22956,R,ugm-3,1.59397,R,ugm-3,1.94595,R,ugm-3
15-01-2020,05:00,0.48781,R,ugm-3,1.55179,R,ugm-3,2.29976,R,ugm-3
15-01-2020,06:00,0.51651,R,ugm-3,1.55202,R,ugm-3,2.34399,R,ugm-3
15-01-2020,07:00,0.28695,R,ugm-3,1.72710,R,ugm-3,2.16708,R,ugm-3
15-01-2020,08:00,0.34434,R,ugm-3,2.08136,R,ugm-3,2.60934,R,ugm-3
15-01-2020,09:00,0.88954,R,ugm-3,3.27980,R,ugm-3,4.64375,R,ugm-3
15-01-2020,10:00,1.17649,R,ugm-3,3.37053,R,ugm-3,5.17446,R,ugm-3
15-01-2020,11:00,0.88954,R,ugm-3,2.61641,R,ugm-3,3.98036,R,ugm-3
15-01-2020,12:00,0.83215,R,ugm-3,2.74863,R,ugm-3,4.02458,R,ugm-3
15-01-2020,13:00,0.91824,R,ugm-3,2.74931,R,ugm-3,4.15726,R,ugm-3
15-01-2020,14:00,0.86085,R,ugm-3,3.10267,R,ugm-3,4.42262,R,ugm-3
15-01-2020,15:00,1.17649,R,ugm-3,3.68012,R,ugm-3,5.48405,R,ugm-3
15-01-2020,16:00,1.00432,R,ugm-3,4.07678,R,ugm-3,5.61673,R,ugm-3
15-01-2020,17:00,1.29127,R,ugm-3,3.41567,R,ugm-3,5.39560,R,ugm-3
15-01-2020,18:00,0.80346,R,ugm-3,3.05799,R,ugm-3,4.28994,R,ugm-3
15-01-2020,19:00,0.86085,R,ugm-3,2.43928,R,ugm-3,3.75923,R,ugm-3
15-01-2020,20:00,0.60259,R,ugm-3,2.56991,R,ugm-3,3.49387,R,ugm-3
15-01-2020,21:00,0.83215,R,ugm-3,3.05821,R,ugm-3,4.33417,R,ugm-3
15-01-2020,22:00,0.77476,R,ugm-3,2.96931,R,ugm-3,4.15726,R,ugm-3
15-01-2020,23:00,0.45912,R,ugm-3,3.05525,R,ugm-3,3.75923,R,ugm-3
15-01-2020,24:00,0.45912,R,ugm-3,2.25918,R,ugm-3,2.96316,R,ugm-3